Time,TemperatureF,DewpointF,PressureIn,WindDirection,WindDirectionDegrees,WindSpeedMPH,WindSpeedGustMPH,Humidity,HourlyPrecipIn,Conditions,Clouds,dailyrainin,SolarRadiationWatts/m^2,SoftwareType,DateUTC
2013-04-17 00:04:00,51.1,30.5,30.11,North,9,0.0,4.0,45,0.00,,,0.00,0,Wunderground v.1.15,2013-04-17 07:04:00,
2013-04-17 00:10:00,51.2,30.6,30.11,NNW,338,0.0,0.0,45,0.00,,,0.00,0,Wunderground v.1.15,2013-04-17 07:10:00,
2013-04-17 00:18:00,51.6,30.9,30.11,North,360,1.0,1.0,45,0.00,,,0.00,0,Wunderground v.1.15,2013-04-17 07:18:00,
2013-04-17 00:24:00,52.0,30.7,30.11,NNE,32,2.0,4.0,44,0.00,,,0.00,0,Wunderground v.1.15,2013-04-17 07:24:00,
2013-04-17 00:30:00,52.3,31.0,30.11,NNW,339,2.0,2.0,44,0.00,,,0.00,0,Wunderground v.1.15,2013-04-17 07:30:00,
2013-04-17 00:36:00,52.4,31.1,30.11,NW,308,2.0,3.0,44,0.00,,,0.00,0,Wunderground v.1.15,2013-04-17 07:36:00,
2013-04-17 00:42:00,52.6,31.3,30.11,North,355,3.0,3.0,44,0.00,,,0.00,0,Wunderground v.1.15,2013-04-17 07:42:00,
2013-04-17 00:48:00,52.7,31.4,30.11,North,5,3.0,4.0,44,0.00,,,0.00,0,Wunderground v.1.15,2013-04-17 07:48:00,
2013-04-17 00:54:00,52.5,31.2,30.12,NW,318,2.0,2.0,44,0.00,,,0.00,0,Wunderground v.1.15,2013-04-17 07:54:00,
2013-04-17 01:00:00,52.3,31.6,30.12,NNW,334,2.0,2.0,45,0.00,,,0.00,0,Wunderground v.1.15,2013-04-17 08:00:00,
2013-04-17 01:06:00,52.2,31.5,30.13,North,350,2.0,7.0,45,0.00,,,0.00,0,Wunderground v.1.15,2013-04-17 08:06:00,
2013-04-17 01:12:00,52.3,31.6,30.12,NNW,338,2.0,2.0,45,0.00,,,0.00,0,Wunderground v.1.15,2013-04-17 08:12:00,
2013-04-17 01:18:00,52.4,31.7,30.12,NNE,28,2.0,3.0,45,0.00,,,0.00,0,Wunderground v.1.15,2013-04-17 08:18:00,
2013-04-17 01:24:00,52.5,31.8,30.12,NW,321,3.0,6.0,45,0.00,,,0.00,0,Wunderground v.1.15,2013-04-17 08:24:00,
2013-04-17 01:30:00,52.5,31.8,30.13,North,355,2.0,3.0,45,0.00,,,0.00,0,Wunderground v.1.15,2013-04-17 08:30:00,
2013-04-17 01:36:00,52.5,31.8,30.13,NNE,17,2.0,3.0,45,0.00,,,0.00,0,Wunderground v.1.15,2013-04-17 08:36:00,
2013-04-17 01:42:00,52.6,31.8,30.13,North,355,3.0,5.0,45,0.00,,,0.00,0,Wunderground v.1.15,2013-04-17 08:42:00,
2013-04-17 01:48:00,52.5,31.8,30.13,NNW,336,3.0,5.0,45,0.00,,,0.00,0,Wunderground v.1.15,2013-04-17 08:48:00,
2013-04-17 01:54:00,52.4,31.7,30.13,NNW,330,3.0,8.0,45,0.00,,,0.00,0,Wunderground v.1.15,2013-04-17 08:54:00,
2013-04-17 02:00:00,52.2,32.0,30.13,NW,319,3.0,6.0,46,0.00,,,0.00,0,Wunderground v.1.15,2013-04-17 09:00:00,
2013-04-17 02:06:00,52.0,31.8,30.13,NW,323,3.0,15.0,46,0.00,,,0.00,0,Wunderground v.1.15,2013-04-17 09:06:00,
2013-04-17 02:12:00,51.8,32.2,30.13,NW,317,3.0,6.0,47,0.00,,,0.00,0,Wunderground v.1.15,2013-04-17 09:12:00,
2013-04-17 02:18:00,51.7,32.1,30.13,NNW,340,3.0,6.0,47,0.00,,,0.00,0,Wunderground v.1.15,2013-04-17 09:18:00,
2013-04-17 02:24:00,51.4,31.8,30.13,NNE,30,3.0,3.0,47,0.00,,,0.00,0,Wunderground v.1.15,2013-04-17 09:24:00,
2013-04-17 02:30:00,51.2,32.2,30.13,NNE,14,2.0,2.0,48,0.00,,,0.00,0,Wunderground v.1.15,2013-04-17 09:30:00,
2013-04-17 02:36:00,51.0,32.5,30.13,NW,324,2.0,4.0,49,0.00,,,0.00,0,Wunderground v.1.15,2013-04-17 09:36:00,
2013-04-17 02:42:00,50.9,32.4,30.13,NW,313,3.0,8.0,49,0.00,,,0.00,0,Wunderground v.1.15,2013-04-17 09:42:00,
2013-04-17 02:48:00,50.7,32.2,30.13,NNW,348,3.0,8.0,49,0.00,,,0.00,0,Wunderground v.1.15,2013-04-17 09:48:00,
2013-04-17 02:54:00,50.5,32.5,30.13,NW,306,2.0,5.0,50,0.00,,,0.00,0,Wunderground v.1.15,2013-04-17 09:54:00,
2013-04-17 03:00:00,50.2,32.8,30.13,NW,320,2.0,2.0,51,0.00,,,0.00,0,Wunderground v.1.15,2013-04-17 10:00:00,
2013-04-17 03:08:00,49.9,32.5,30.13,NNW,347,2.0,18.0,51,0.00,,,0.00,0,Wunderground v.1.15,2013-04-17 10:08:00,
2013-04-17 03:14:00,49.8,32.4,30.13,NNW,329,2.0,4.0,51,0.00,,,0.00,0,Wunderground v.1.15,2013-04-17 10:14:00,
2013-04-17 03:20:00,49.6,32.7,30.13,North,350,2.0,2.0,52,0.00,,,0.00,0,Wunderground v.1.15,2013-04-17 10:20:00,
2013-04-17 03:28:00,49.4,33.0,30.13,NNW,347,2.0,2.0,53,0.00,,,0.00,0,Wunderground v.1.15,2013-04-17 10:28:00,
2013-04-17 03:34:00,49.2,32.8,30.13,NNE,19,2.0,11.0,53,0.00,,,0.00,0,Wunderground v.1.15,2013-04-17 10:34:00,
2013-04-17 03:40:00,49.2,32.8,30.13,North,360,3.0,3.0,53,0.00,,,0.00,0,Wunderground v.1.15,2013-04-17 10:40:00,
2013-04-17 03:46:00,49.2,32.8,30.13,NNE,20,3.0,8.0,53,0.00,,,0.00,0,Wunderground v.1.15,2013-04-17 10:46:00,
2013-04-17 03:52:00,49.1,33.2,30.13,NW,323,2.0,7.0,54,0.00,,,0.00,0,Wunderground v.1.15,2013-04-17 10:52:00,
2013-04-17 03:58:00,49.1,32.7,30.13,North,360,2.0,7.0,53,0.00,,,0.00,0,Wunderground v.1.15,2013-04-17 10:58:00,
2013-04-17 04:04:00,49.0,33.1,30.13,North,351,3.0,16.0,54,0.00,,,0.00,0,Wunderground v.1.15,2013-04-17 11:04:00,
2013-04-17 04:10:00,48.8,32.9,30.13,NNE,16,2.0,2.0,54,0.00,,,0.00,0,Wunderground v.1.15,2013-04-17 11:10:00,
2013-04-17 04:16:00,48.7,32.8,30.13,NNW,334,2.0,10.0,54,0.00,,,0.00,0,Wunderground v.1.15,2013-04-17 11:16:00,
2013-04-17 04:22:00,48.6,33.1,30.13,NE,38,3.0,3.0,55,0.00,,,0.00,0,Wunderground v.1.15,2013-04-17 11:22:00,
2013-04-17 04:28:00,48.5,33.1,30.14,North,349,2.0,11.0,55,0.00,,,0.00,0,Wunderground v.1.15,2013-04-17 11:28:00,
2013-04-17 04:34:00,48.4,33.0,30.14,North,360,2.0,4.0,55,0.00,,,0.00,0,Wunderground v.1.15,2013-04-17 11:34:00,
2013-04-17 04:40:00,48.3,32.9,30.14,NW,322,3.0,3.0,55,0.00,,,0.00,0,Wunderground v.1.15,2013-04-17 11:40:00,
2013-04-17 04:46:00,48.3,32.9,30.14,NNW,335,2.0,4.0,55,0.00,,,0.00,0,Wunderground v.1.15,2013-04-17 11:46:00,
2013-04-17 04:52:00,48.2,33.2,30.14,NNW,343,2.0,5.0,56,0.00,,,0.00,0,Wunderground v.1.15,2013-04-17 11:52:00,
2013-04-17 04:58:00,48.1,33.1,30.14,NNW,338,2.0,5.0,56,0.00,,,0.00,0,Wunderground v.1.15,2013-04-17 11:58:00,
2013-04-17 05:04:00,48.1,32.7,30.14,NNW,337,2.0,18.0,55,0.00,,,0.00,0,Wunderground v.1.15,2013-04-17 12:04:00,
2013-04-17 05:10:00,48.2,33.2,30.15,NE,34,2.0,2.0,56,0.00,,,0.00,0,Wunderground v.1.15,2013-04-17 12:10:00,
2013-04-17 05:16:00,48.2,33.2,30.15,North,355,2.0,10.0,56,0.00,,,0.00,0,Wunderground v.1.15,2013-04-17 12:16:00,
2013-04-17 05:22:00,48.3,32.9,30.14,NW,314,2.0,2.0,55,0.00,,,0.00,0,Wunderground v.1.15,2013-04-17 12:22:00,
2013-04-17 05:28:00,48.5,33.1,30.15,NNW,331,2.0,4.0,55,0.00,,,0.00,0,Wunderground v.1.15,2013-04-17 12:28:00,
2013-04-17 05:34:00,48.4,33.0,30.15,North,11,2.0,4.0,55,0.00,,,0.00,0,Wunderground v.1.15,2013-04-17 12:34:00,
2013-04-17 05:40:00,48.3,33.3,30.15,NNW,331,3.0,7.0,56,0.00,,,0.00,0,Wunderground v.1.15,2013-04-17 12:40:00,
2013-04-17 05:46:00,48.3,33.3,30.15,NW,311,3.0,7.0,56,0.00,,,0.00,0,Wunderground v.1.15,2013-04-17 12:46:00,
2013-04-17 05:52:00,48.3,33.3,30.16,NNW,345,3.0,3.0,56,0.00,,,0.00,0,Wunderground v.1.15,2013-04-17 12:52:00,
2013-04-17 05:58:00,48.2,33.2,30.16,NNW,330,3.0,4.0,56,0.00,,,0.00,0,Wunderground v.1.15,2013-04-17 12:58:00,
2013-04-17 06:04:00,48.1,33.1,30.16,North,349,3.0,14.0,56,0.00,,,0.00,0,Wunderground v.1.15,2013-04-17 13:04:00,
2013-04-17 06:10:00,47.9,32.9,30.16,NNW,344,2.0,3.0,56,0.00,,,0.00,0,Wunderground v.1.15,2013-04-17 13:10:00,
2013-04-17 06:16:00,47.9,32.9,30.16,North,11,3.0,7.0,56,0.00,,,0.00,0,Wunderground v.1.15,2013-04-17 13:16:00,
2013-04-17 06:22:00,47.8,32.9,30.17,NNW,331,3.0,3.0,56,0.00,,,0.00,0,Wunderground v.1.15,2013-04-17 13:22:00,
2013-04-17 06:28:00,47.7,33.2,30.17,NW,313,2.0,3.0,57,0.00,,,0.00,5,Wunderground v.1.15,2013-04-17 13:28:00,
2013-04-17 06:34:00,47.7,33.2,30.17,WNW,301,2.0,5.0,57,0.00,,,0.00,9,Wunderground v.1.15,2013-04-17 13:34:00,
2013-04-17 06:40:00,47.7,33.2,30.17,NNW,331,1.0,1.0,57,0.00,,,0.00,12,Wunderground v.1.15,2013-04-17 13:40:00,
2013-04-17 06:46:00,47.7,32.8,30.17,NW,309,1.0,3.0,56,0.00,,,0.00,16,Wunderground v.1.15,2013-04-17 13:46:00,
2013-04-17 06:52:00,47.8,32.9,30.18,NNW,336,2.0,2.0,56,0.00,,,0.00,18,Wunderground v.1.15,2013-04-17 13:52:00,
2013-04-17 06:58:00,48.0,33.0,30.18,NW,315,2.0,7.0,56,0.00,,,0.00,21,Wunderground v.1.15,2013-04-17 13:58:00,
2013-04-17 07:04:00,48.1,33.1,30.18,NW,305,2.0,16.0,56,0.00,,,0.00,25,Wunderground v.1.15,2013-04-17 14:04:00,
2013-04-17 07:10:00,48.2,33.2,30.18,NW,316,2.0,3.0,56,0.00,,,0.00,51,Wunderground v.1.15,2013-04-17 14:10:00,
2013-04-17 07:16:00,48.7,33.2,30.19,NNW,327,3.0,6.0,55,0.00,,,0.00,69,Wunderground v.1.15,2013-04-17 14:16:00,
2013-04-17 07:22:00,49.0,33.1,30.19,NNW,336,3.0,14.0,54,0.00,,,0.00,90,Wunderground v.1.15,2013-04-17 14:22:00,
2013-04-17 07:28:00,49.2,33.3,30.19,North,355,4.0,14.0,54,0.00,,,0.00,113,Wunderground v.1.15,2013-04-17 14:28:00,
2013-04-17 07:34:00,49.6,33.6,30.19,NNW,338,4.0,4.0,54,0.00,,,0.00,137,Wunderground v.1.15,2013-04-17 14:34:00,
2013-04-17 07:40:00,49.9,33.9,30.19,North,360,3.0,4.0,54,0.00,,,0.00,163,Wunderground v.1.15,2013-04-17 14:40:00,
2013-04-17 07:46:00,50.3,34.3,30.20,WNW,298,3.0,5.0,54,0.00,,,0.00,190,Wunderground v.1.15,2013-04-17 14:46:00,
2013-04-17 07:52:00,50.7,34.2,30.20,NNW,337,3.0,3.0,53,0.00,,,0.00,218,Wunderground v.1.15,2013-04-17 14:52:00,
2013-04-17 07:58:00,51.0,34.0,30.20,NW,321,3.0,5.0,52,0.00,,,0.00,246,Wunderground v.1.15,2013-04-17 14:58:00,
2013-04-17 08:04:00,51.3,34.3,30.20,North,355,4.0,15.0,52,0.00,,,0.00,267,Wunderground v.1.15,2013-04-17 15:04:00,
2013-04-17 08:10:00,51.7,34.6,30.20,North,350,3.0,7.0,52,0.00,,,0.00,287,Wunderground v.1.15,2013-04-17 15:10:00,
2013-04-17 08:16:00,52.1,34.5,30.21,NW,319,3.0,16.0,51,0.00,,,0.00,309,Wunderground v.1.15,2013-04-17 15:16:00,
2013-04-17 08:22:00,52.5,34.4,30.20,NNW,337,4.0,8.0,50,0.00,,,0.00,330,Wunderground v.1.15,2013-04-17 15:22:00,
2013-04-17 08:28:00,52.8,34.7,30.21,North,350,4.0,8.0,50,0.00,,,0.00,352,Wunderground v.1.15,2013-04-17 15:28:00,
2013-04-17 08:34:00,53.2,34.5,30.21,NNW,340,4.0,7.0,49,0.00,,,0.00,373,Wunderground v.1.15,2013-04-17 15:34:00,
2013-04-17 08:40:00,53.3,34.6,30.21,NNW,336,5.0,5.0,49,0.00,,,0.00,394,Wunderground v.1.15,2013-04-17 15:40:00,
2013-04-17 08:46:00,53.5,34.3,30.20,North,355,6.0,11.0,48,0.00,,,0.00,415,Wunderground v.1.15,2013-04-17 15:46:00,
2013-04-17 08:52:00,53.9,35.2,30.20,NW,325,6.0,6.0,49,0.00,,,0.00,436,Wunderground v.1.15,2013-04-17 15:52:00,
2013-04-17 08:58:00,54.5,35.2,30.21,NNE,17,4.0,8.0,48,0.00,,,0.00,457,Wunderground v.1.15,2013-04-17 15:58:00,
2013-04-17 09:04:00,54.9,35.0,30.20,WNW,300,5.0,8.0,47,0.00,,,0.00,480,Wunderground v.1.15,2013-04-17 16:04:00,
2013-04-17 09:10:00,55.0,34.6,30.21,NNW,348,7.0,7.0,46,0.00,,,0.00,499,Wunderground v.1.15,2013-04-17 16:10:00,
2013-04-17 09:22:00,56.2,35.1,30.21,NNW,340,4.0,7.0,45,0.00,,,0.00,538,Wunderground v.1.15,2013-04-17 16:22:00,
2013-04-17 09:28:00,57.0,35.9,30.21,NW,324,4.0,9.0,45,0.00,,,0.00,561,Wunderground v.1.15,2013-04-17 16:28:00,
2013-04-17 09:34:00,57.6,34.7,30.21,NW,317,3.0,10.0,42,0.00,,,0.00,580,Wunderground v.1.15,2013-04-17 16:34:00,
2013-04-17 09:40:00,57.8,34.2,30.21,WNW,292,5.0,8.0,41,0.00,,,0.00,601,Wunderground v.1.15,2013-04-17 16:40:00,
2013-04-17 09:46:00,58.0,33.8,30.20,NW,321,6.0,8.0,40,0.00,,,0.00,621,Wunderground v.1.15,2013-04-17 16:46:00,
2013-04-17 09:52:00,58.1,33.2,30.20,NNW,334,7.0,7.0,39,0.00,,,0.00,642,Wunderground v.1.15,2013-04-17 16:52:00,
2013-04-17 09:58:00,58.5,32.3,30.20,NNW,333,7.0,18.0,37,0.00,,,0.00,659,Wunderground v.1.15,2013-04-17 16:58:00,
2013-04-17 10:04:00,58.5,32.3,30.20,WNW,286,8.0,21.0,37,0.00,,,0.00,679,Wunderground v.1.15,2013-04-17 17:04:00,
2013-04-17 10:10:00,59.0,32.1,30.20,NW,304,8.0,8.0,36,0.00,,,0.00,694,Wunderground v.1.15,2013-04-17 17:10:00,
2013-04-17 10:16:00,59.7,31.3,30.20,NW,312,6.0,13.0,34,0.00,,,0.00,715,Wunderground v.1.15,2013-04-17 17:16:00,
2013-04-17 10:22:00,59.9,30.7,30.21,NNW,336,6.0,6.0,33,0.00,,,0.00,729,Wunderground v.1.15,2013-04-17 17:22:00,
2013-04-17 10:28:00,60.3,30.3,30.21,NNE,15,7.0,18.0,32,0.00,,,0.00,747,Wunderground v.1.15,2013-04-17 17:28:00,
2013-04-17 10:34:00,60.7,29.9,30.21,NNE,19,6.0,7.0,31,0.00,,,0.00,766,Wunderground v.1.15,2013-04-17 17:34:00,
2013-04-17 10:40:00,60.5,28.9,30.21,NW,317,7.0,18.0,30,0.00,,,0.00,775,Wunderground v.1.15,2013-04-17 17:40:00,
2013-04-17 10:46:00,60.8,29.9,30.20,WNW,296,10.0,18.0,31,0.00,,,0.00,795,Wunderground v.1.15,2013-04-17 17:46:00,
2013-04-17 10:52:00,61.3,29.6,30.20,NNW,344,8.0,23.0,30,0.00,,,0.00,809,Wunderground v.1.15,2013-04-17 17:52:00,
2013-04-17 10:58:00,61.8,30.8,30.20,NNW,337,7.0,23.0,31,0.00,,,0.00,831,Wunderground v.1.15,2013-04-17 17:58:00,
2013-04-17 11:04:00,62.3,32.0,30.20,NNW,333,6.0,25.0,32,0.00,,,0.00,837,Wunderground v.1.15,2013-04-17 18:04:00,
2013-04-17 11:10:00,62.3,29.6,30.20,NNE,29,6.0,12.0,29,0.00,,,0.00,854,Wunderground v.1.15,2013-04-17 18:10:00,
2013-04-17 11:18:00,62.6,29.9,30.20,NNW,346,7.0,12.0,29,0.00,,,0.00,863,Wunderground v.1.15,2013-04-17 18:18:00,
2013-04-17 11:24:00,62.9,29.3,30.21,NW,319,7.0,10.0,28,0.00,,,0.00,874,Wunderground v.1.15,2013-04-17 18:24:00,
2013-04-17 11:30:00,62.6,28.1,30.20,NNW,331,8.0,8.0,27,0.00,,,0.00,888,Wunderground v.1.15,2013-04-17 18:30:00,
2013-04-17 11:38:00,62.7,29.1,30.20,NW,323,9.0,11.0,28,0.00,,,0.00,902,Wunderground v.1.15,2013-04-17 18:38:00,
2013-04-17 11:44:00,63.1,28.5,30.20,NNW,344,9.0,23.0,27,0.00,,,0.00,907,Wunderground v.1.15,2013-04-17 18:44:00,
2013-04-17 11:50:00,63.7,28.1,30.20,North,5,10.0,10.0,26,0.00,,,0.00,925,Wunderground v.1.15,2013-04-17 18:50:00,
2013-04-17 11:56:00,63.8,29.1,30.20,NNW,335,9.0,10.0,27,0.00,,,0.00,926,Wunderground v.1.15,2013-04-17 18:56:00,
2013-04-17 12:02:00,63.7,28.1,30.20,NW,322,9.0,27.0,26,0.00,,,0.00,935,Wunderground v.1.15,2013-04-17 19:02:00,
2013-04-17 12:08:00,64.3,28.7,30.20,North,350,7.0,27.0,26,0.00,,,0.00,937,Wunderground v.1.15,2013-04-17 19:08:00,
2013-04-17 12:14:00,64.4,29.7,30.20,NW,321,6.0,13.0,27,0.00,,,0.00,947,Wunderground v.1.15,2013-04-17 19:14:00,
2013-04-17 12:20:00,64.6,27.9,30.20,NNW,348,8.0,12.0,25,0.00,,,0.00,953,Wunderground v.1.15,2013-04-17 19:20:00,
2013-04-17 12:26:00,64.5,27.9,30.20,NNE,32,9.0,14.0,25,0.00,,,0.00,963,Wunderground v.1.15,2013-04-17 19:26:00,
2013-04-17 12:32:00,64.8,28.1,30.20,West,267,8.0,8.0,25,0.00,,,0.00,969,Wunderground v.1.15,2013-04-17 19:32:00,
2013-04-17 12:38:00,65.2,28.5,30.20,NNE,17,7.0,14.0,25,0.00,,,0.00,970,Wunderground v.1.15,2013-04-17 19:38:00,
2013-04-17 12:44:00,65.5,28.7,30.19,North,5,7.0,13.0,25,0.00,,,0.00,976,Wunderground v.1.15,2013-04-17 19:44:00,
2013-04-17 12:50:00,65.9,28.1,30.19,NNW,343,6.0,7.0,24,0.00,,,0.00,977,Wunderground v.1.15,2013-04-17 19:50:00,
2013-04-17 12:56:00,65.9,29.1,30.19,North,360,6.0,7.0,25,0.00,,,0.00,983,Wunderground v.1.15,2013-04-17 19:56:00,
2013-04-17 13:02:00,65.9,28.1,30.19,North,360,5.0,28.0,24,0.00,,,0.00,984,Wunderground v.1.15,2013-04-17 20:02:00,
2013-04-17 13:08:00,65.8,29.9,30.19,NNW,336,7.0,28.0,26,0.00,,,0.00,981,Wunderground v.1.15,2013-04-17 20:08:00,
2013-04-17 13:14:00,66.5,30.5,30.18,NNE,22,4.0,6.0,26,0.00,,,0.00,979,Wunderground v.1.15,2013-04-17 20:14:00,
2013-04-17 13:20:00,66.9,29.9,30.18,North,355,5.0,5.0,25,0.00,,,0.00,981,Wunderground v.1.15,2013-04-17 20:20:00,
2013-04-17 13:26:00,67.3,28.2,30.18,NNW,340,6.0,14.0,23,0.00,,,0.00,986,Wunderground v.1.15,2013-04-17 20:26:00,
2013-04-17 13:36:00,67.8,30.7,30.18,NNW,336,3.0,7.0,25,0.00,,,0.00,976,Wunderground v.1.15,2013-04-17 20:36:00,
2013-04-17 13:42:00,67.3,27.1,30.18,North,355,4.0,5.0,22,0.00,,,0.00,977,Wunderground v.1.15,2013-04-17 20:42:00,
2013-04-17 13:48:00,67.2,29.2,30.18,NNE,30,6.0,14.0,24,0.00,,,0.00,972,Wunderground v.1.15,2013-04-17 20:48:00,
2013-04-17 13:54:00,67.6,28.5,30.17,North,5,4.0,7.0,23,0.00,,,0.00,967,Wunderground v.1.15,2013-04-17 20:54:00,
2013-04-17 14:00:00,68.1,30.9,30.17,NNW,348,4.0,4.0,25,0.00,,,0.00,960,Wunderground v.1.15,2013-04-17 21:00:00,
2013-04-17 14:08:00,68.1,28.9,30.17,NE,34,4.0,24.0,23,0.00,,,0.00,954,Wunderground v.1.15,2013-04-17 21:08:00,
2013-04-17 14:14:00,67.9,28.7,30.17,NNW,344,5.0,7.0,23,0.00,,,0.00,947,Wunderground v.1.15,2013-04-17 21:14:00,
2013-04-17 14:20:00,67.9,28.7,30.17,North,5,6.0,6.0,23,0.00,,,0.00,942,Wunderground v.1.15,2013-04-17 21:20:00,
2013-04-17 14:26:00,68.1,30.9,30.17,NNW,327,4.0,12.0,25,0.00,,,0.00,932,Wunderground v.1.15,2013-04-17 21:26:00,
2013-04-17 14:32:00,68.2,29.0,30.16,NW,324,5.0,5.0,23,0.00,,,0.00,925,Wunderground v.1.15,2013-04-17 21:32:00,
2013-04-17 14:38:00,68.6,30.3,30.16,NW,321,6.0,11.0,24,0.00,,,0.00,918,Wunderground v.1.15,2013-04-17 21:38:00,
2013-04-17 14:44:00,68.7,29.4,30.16,WNW,302,5.0,6.0,23,0.00,,,0.00,909,Wunderground v.1.15,2013-04-17 21:44:00,
2013-04-17 14:50:00,68.3,29.0,30.15,NE,40,7.0,7.0,23,0.00,,,0.00,898,Wunderground v.1.15,2013-04-17 21:50:00,
2013-04-17 14:58:00,69.2,29.8,30.15,WSW,249,5.0,7.0,23,0.00,,,0.00,884,Wunderground v.1.15,2013-04-17 21:58:00,
2013-04-17 15:04:00,69.2,28.7,30.16,NNW,348,5.0,22.0,22,0.00,,,0.00,872,Wunderground v.1.15,2013-04-17 22:04:00,
2013-04-17 15:10:00,69.0,29.6,30.15,NNW,340,5.0,13.0,23,0.00,,,0.00,861,Wunderground v.1.15,2013-04-17 22:10:00,
2013-04-17 15:16:00,69.3,29.9,30.15,NW,326,6.0,13.0,23,0.00,,,0.00,847,Wunderground v.1.15,2013-04-17 22:16:00,
2013-04-17 15:22:00,69.0,28.5,30.15,West,279,6.0,7.0,22,0.00,,,0.00,833,Wunderground v.1.15,2013-04-17 22:22:00,
2013-04-17 15:28:00,69.4,31.0,30.14,North,9,5.0,17.0,24,0.00,,,0.00,824,Wunderground v.1.15,2013-04-17 22:28:00,
2013-04-17 15:34:00,69.8,29.2,30.14,West,271,4.0,11.0,22,0.00,,,0.00,814,Wunderground v.1.15,2013-04-17 22:34:00,
2013-04-17 15:40:00,70.0,29.4,30.14,North,360,5.0,5.0,22,0.00,,,0.00,796,Wunderground v.1.15,2013-04-17 22:40:00,
2013-04-17 15:46:00,70.0,29.4,30.14,WNW,284,5.0,14.0,22,0.00,,,0.00,780,Wunderground v.1.15,2013-04-17 22:46:00,
2013-04-17 15:52:00,69.7,28.0,30.14,North,5,6.0,11.0,21,0.00,,,0.00,766,Wunderground v.1.15,2013-04-17 22:52:00,
2013-04-17 15:58:00,69.7,29.1,30.14,NW,313,6.0,15.0,22,0.00,,,0.00,751,Wunderground v.1.15,2013-04-17 22:58:00,
2013-04-17 16:04:00,69.7,29.1,30.14,NW,326,6.0,24.0,22,0.00,,,0.00,733,Wunderground v.1.15,2013-04-17 23:04:00,
2013-04-17 16:10:00,70.0,30.5,30.13,NW,309,6.0,6.0,23,0.00,,,0.00,712,Wunderground v.1.15,2013-04-17 23:10:00,
2013-04-17 16:16:00,70.0,29.4,30.13,North,355,5.0,8.0,22,0.00,,,0.00,696,Wunderground v.1.15,2013-04-17 23:16:00,
2013-04-17 16:22:00,70.4,29.7,30.13,NW,321,5.0,5.0,22,0.00,,,0.00,679,Wunderground v.1.15,2013-04-17 23:22:00,
2013-04-17 16:28:00,70.3,29.6,30.13,NW,324,5.0,5.0,22,0.00,,,0.00,661,Wunderground v.1.15,2013-04-17 23:28:00,
2013-04-17 16:34:00,70.3,29.6,30.12,NNE,22,4.0,6.0,22,0.00,,,0.00,638,Wunderground v.1.15,2013-04-17 23:34:00,
2013-04-17 16:40:00,70.5,28.7,30.12,NNW,331,5.0,5.0,21,0.00,,,0.00,619,Wunderground v.1.15,2013-04-17 23:40:00,
2013-04-17 16:46:00,70.3,27.3,30.12,NW,320,7.0,10.0,20,0.00,,,0.00,605,Wunderground v.1.15,2013-04-17 23:46:00,
2013-04-17 16:52:00,70.9,30.1,30.12,NNW,334,5.0,9.0,22,0.00,,,0.00,582,Wunderground v.1.15,2013-04-17 23:52:00,
2013-04-17 16:58:00,70.6,29.9,30.12,NNW,337,5.0,9.0,22,0.00,,,0.00,563,Wunderground v.1.15,2013-04-17 23:58:00,
2013-04-17 17:04:00,70.3,28.5,30.11,NNW,331,6.0,25.0,21,0.00,,,0.00,543,Wunderground v.1.15,2013-04-18 00:04:00,
2013-04-17 17:10:00,70.1,28.3,30.11,WNW,302,6.0,9.0,21,0.00,,,0.00,522,Wunderground v.1.15,2013-04-18 00:10:00,
2013-04-17 17:18:00,70.4,29.7,30.11,NW,314,6.0,12.0,22,0.00,,,0.00,492,Wunderground v.1.15,2013-04-18 00:18:00,
2013-04-17 17:24:00,70.5,28.7,30.11,NW,321,5.0,7.0,21,0.00,,,0.00,473,Wunderground v.1.15,2013-04-18 00:24:00,
2013-04-17 17:30:00,70.1,28.3,30.11,NNW,345,6.0,6.0,21,0.00,,,0.00,450,Wunderground v.1.15,2013-04-18 00:30:00,
2013-04-17 17:36:00,70.2,29.5,30.11,NNE,29,4.0,12.0,22,0.00,,,0.00,429,Wunderground v.1.15,2013-04-18 00:36:00,
2013-04-17 17:42:00,70.2,28.4,30.11,NW,315,3.0,5.0,21,0.00,,,0.00,408,Wunderground v.1.15,2013-04-18 00:42:00,
2013-04-17 17:48:00,69.8,28.1,30.11,NW,312,4.0,8.0,21,0.00,,,0.00,86,Wunderground v.1.15,2013-04-18 00:48:00,
2013-04-17 17:54:00,69.4,28.9,30.11,NNE,28,5.0,9.0,22,0.00,,,0.00,53,Wunderground v.1.15,2013-04-18 00:54:00,
2013-04-17 18:00:00,69.4,28.9,30.11,NNW,342,3.0,4.0,22,0.00,,,0.00,51,Wunderground v.1.15,2013-04-18 01:00:00,
2013-04-17 18:06:00,69.1,28.6,30.11,NNW,330,4.0,24.0,22,0.00,,,0.00,51,Wunderground v.1.15,2013-04-18 01:06:00,
2013-04-17 18:12:00,69.1,29.7,30.11,NW,317,4.0,4.0,23,0.00,,,0.00,49,Wunderground v.1.15,2013-04-18 01:12:00,
2013-04-17 18:18:00,69.0,28.5,30.11,NNW,329,3.0,4.0,22,0.00,,,0.00,49,Wunderground v.1.15,2013-04-18 01:18:00,
2013-04-17 18:24:00,69.5,29.0,30.11,NW,309,3.0,3.0,22,0.00,,,0.00,246,Wunderground v.1.15,2013-04-18 01:24:00,
2013-04-17 18:30:00,69.8,29.2,30.11,North,360,3.0,3.0,22,0.00,,,0.00,221,Wunderground v.1.15,2013-04-18 01:30:00,
2013-04-17 18:38:00,70.0,28.2,30.11,WNW,298,3.0,8.0,21,0.00,,,0.00,188,Wunderground v.1.15,2013-04-18 01:38:00,
2013-04-17 18:44:00,69.9,30.4,30.11,North,5,2.0,5.0,23,0.00,,,0.00,162,Wunderground v.1.15,2013-04-18 01:44:00,
2013-04-17 18:50:00,69.7,29.1,30.11,West,261,2.0,4.0,22,0.00,,,0.00,137,Wunderground v.1.15,2013-04-18 01:50:00,
2013-04-17 18:56:00,69.4,30.0,30.11,NNW,331,2.0,6.0,23,0.00,,,0.00,111,Wunderground v.1.15,2013-04-18 01:56:00,
2013-04-17 19:02:00,69.2,29.8,30.11,NNW,347,2.0,6.0,23,0.00,,,0.00,88,Wunderground v.1.15,2013-04-18 02:02:00,
2013-04-17 19:08:00,68.7,29.4,30.11,NW,322,3.0,22.0,23,0.00,,,0.00,69,Wunderground v.1.15,2013-04-18 02:08:00,
2013-04-17 19:14:00,68.5,30.3,30.11,NW,317,2.0,6.0,24,0.00,,,0.00,49,Wunderground v.1.15,2013-04-18 02:14:00,
2013-04-17 19:20:00,67.9,29.7,30.11,NW,319,2.0,2.0,24,0.00,,,0.00,35,Wunderground v.1.15,2013-04-18 02:20:00,
2013-04-17 19:26:00,67.4,29.3,30.11,NNW,327,2.0,5.0,24,0.00,,,0.00,19,Wunderground v.1.15,2013-04-18 02:26:00,
2013-04-17 19:32:00,66.7,30.7,30.11,NNW,336,2.0,3.0,26,0.00,,,0.00,16,Wunderground v.1.15,2013-04-18 02:32:00,
2013-04-17 19:38:00,66.1,30.2,30.11,NNW,329,1.0,3.0,26,0.00,,,0.00,12,Wunderground v.1.15,2013-04-18 02:38:00,
2013-04-17 19:44:00,65.6,29.8,30.11,WNW,302,1.0,1.0,26,0.00,,,0.00,7,Wunderground v.1.15,2013-04-18 02:44:00,
2013-04-17 19:50:00,65.2,29.4,30.11,NW,316,1.0,1.0,26,0.00,,,0.00,5,Wunderground v.1.15,2013-04-18 02:50:00,
2013-04-17 19:56:00,64.7,29.0,30.11,NNW,327,1.0,1.0,26,0.00,,,0.00,0,Wunderground v.1.15,2013-04-18 02:56:00,
2013-04-17 20:02:00,64.4,29.7,30.11,NW,321,1.0,17.0,27,0.00,,,0.00,0,Wunderground v.1.15,2013-04-18 03:02:00,
2013-04-17 20:08:00,64.0,30.2,30.11,NNW,330,0.0,17.0,28,0.00,,,0.00,0,Wunderground v.1.15,2013-04-18 03:08:00,
2013-04-17 20:14:00,63.6,29.9,30.11,NNW,329,0.0,0.0,28,0.00,,,0.00,0,Wunderground v.1.15,2013-04-18 03:14:00,
2013-04-17 20:20:00,63.3,29.6,30.11,NW,325,0.0,0.0,28,0.00,,,0.00,0,Wunderground v.1.15,2013-04-18 03:20:00,
2013-04-17 20:26:00,62.8,30.0,30.11,NW,325,0.0,0.0,29,0.00,,,0.00,0,Wunderground v.1.15,2013-04-18 03:26:00,
2013-04-17 20:32:00,62.2,30.4,30.11,NW,309,0.0,2.0,30,0.00,,,0.00,0,Wunderground v.1.15,2013-04-18 03:32:00,
2013-04-17 20:38:00,61.6,30.6,30.11,NNW,332,2.0,4.0,31,0.00,,,0.00,0,Wunderground v.1.15,2013-04-18 03:38:00,
2013-04-17 20:44:00,61.3,30.4,30.11,NW,324,3.0,5.0,31,0.00,,,0.00,0,Wunderground v.1.15,2013-04-18 03:44:00,
2013-04-17 20:50:00,61.1,30.2,30.12,NW,326,3.0,5.0,31,0.00,,,0.00,0,Wunderground v.1.15,2013-04-18 03:50:00,
2013-04-17 20:58:00,60.8,29.9,30.13,NNW,327,2.0,5.0,31,0.00,,,0.00,0,Wunderground v.1.15,2013-04-18 03:58:00,
2013-04-17 21:02:00,60.6,30.6,30.13,NW,317,2.0,11.0,32,0.00,,,0.00,0,Wunderground v.1.15,2013-04-18 04:02:00,
2013-04-17 21:04:00,60.5,30.5,30.13,WNW,302,2.0,11.0,32,0.00,,,0.00,0,Wunderground v.1.15,2013-04-18 04:04:00,
2013-04-17 21:08:00,60.4,30.4,30.13,NW,314,1.0,11.0,32,0.00,,,0.00,0,Wunderground v.1.15,2013-04-18 04:08:00,
2013-04-17 21:14:00,60.3,30.3,30.13,NW,321,1.0,1.0,32,0.00,,,0.00,0,Wunderground v.1.15,2013-04-18 04:14:00,
2013-04-17 21:16:00,60.3,30.3,30.13,NW,323,1.0,1.0,32,0.00,,,0.00,0,Wunderground v.1.15,2013-04-18 04:16:00,
2013-04-17 21:20:00,60.2,30.2,30.13,NW,323,1.0,2.0,32,0.00,,,0.00,0,Wunderground v.1.15,2013-04-18 04:20:00,
2013-04-17 21:26:00,60.2,30.2,30.13,NNW,327,1.0,2.0,32,0.00,,,0.00,0,Wunderground v.1.15,2013-04-18 04:26:00,
2013-04-17 21:32:00,60.2,30.2,30.14,NNW,333,1.0,1.0,32,0.00,,,0.00,0,Wunderground v.1.15,2013-04-18 04:32:00,
2013-04-17 21:38:00,60.1,29.3,30.14,NW,321,1.0,1.0,31,0.00,,,0.00,0,Wunderground v.1.15,2013-04-18 04:38:00,
2013-04-17 21:44:00,60.1,29.3,30.14,NNW,328,1.0,1.0,31,0.00,,,0.00,0,Wunderground v.1.15,2013-04-18 04:44:00,
2013-04-17 21:50:00,60.2,30.2,30.14,NW,323,1.0,2.0,32,0.00,,,0.00,0,Wunderground v.1.15,2013-04-18 04:50:00,
2013-04-17 21:56:00,60.4,29.6,30.15,NNW,348,1.0,4.0,31,0.00,,,0.00,0,Wunderground v.1.15,2013-04-18 04:56:00,
2013-04-17 22:02:00,60.5,29.7,30.15,NNW,338,2.0,4.0,31,0.00,,,0.00,0,Wunderground v.1.15,2013-04-18 05:02:00,
2013-04-17 22:08:00,60.6,29.8,30.15,NNW,330,2.0,9.0,31,0.00,,,0.00,0,Wunderground v.1.15,2013-04-18 05:08:00,
2013-04-17 22:14:00,60.4,30.4,30.15,NW,318,1.0,2.0,32,0.00,,,0.00,0,Wunderground v.1.15,2013-04-18 05:14:00,
2013-04-17 22:20:00,60.4,30.4,30.15,NNW,337,1.0,3.0,32,0.00,,,0.00,0,Wunderground v.1.15,2013-04-18 05:20:00,
2013-04-17 22:26:00,60.4,30.4,30.14,NW,311,1.0,3.0,32,0.00,,,0.00,0,Wunderground v.1.15,2013-04-18 05:26:00,
2013-04-17 22:32:00,60.2,30.2,30.14,NNW,332,1.0,5.0,32,0.00,,,0.00,0,Wunderground v.1.15,2013-04-18 05:32:00,
2013-04-17 22:38:00,60.2,30.2,30.14,NNW,342,1.0,5.0,32,0.00,,,0.00,0,Wunderground v.1.15,2013-04-18 05:38:00,
2013-04-17 22:44:00,60.1,30.1,30.14,North,355,1.0,1.0,32,0.00,,,0.00,0,Wunderground v.1.15,2013-04-18 05:44:00,
2013-04-17 22:50:00,60.0,30.0,30.14,NW,323,1.0,1.0,32,0.00,,,0.00,0,Wunderground v.1.15,2013-04-18 05:50:00,
2013-04-17 22:56:00,60.0,30.0,30.14,NW,319,1.0,1.0,32,0.00,,,0.00,0,Wunderground v.1.15,2013-04-18 05:56:00,
2013-04-17 23:02:00,60.0,30.0,30.14,NNW,331,1.0,8.0,32,0.00,,,0.00,0,Wunderground v.1.15,2013-04-18 06:02:00,
2013-04-17 23:08:00,59.8,29.9,30.14,NNW,343,0.0,8.0,32,0.00,,,0.00,0,Wunderground v.1.15,2013-04-18 06:08:00,
2013-04-17 23:14:00,59.6,29.7,30.14,NNW,329,1.0,1.0,32,0.00,,,0.00,0,Wunderground v.1.15,2013-04-18 06:14:00,
2013-04-17 23:20:00,59.3,29.4,30.14,NNW,332,1.0,1.0,32,0.00,,,0.00,0,Wunderground v.1.15,2013-04-18 06:20:00,
2013-04-17 23:26:00,59.1,30.0,30.14,NNW,332,0.0,1.0,33,0.00,,,0.00,0,Wunderground v.1.15,2013-04-18 06:26:00,
2013-04-17 23:32:00,58.8,29.7,30.14,North,355,0.0,1.0,33,0.00,,,0.00,0,Wunderground v.1.15,2013-04-18 06:32:00,
2013-04-17 23:38:00,58.5,30.2,30.14,NNE,13,0.0,1.0,34,0.00,,,0.00,0,Wunderground v.1.15,2013-04-18 06:38:00,
2013-04-17 23:44:00,58.3,30.0,30.14,North,5,0.0,0.0,34,0.00,,,0.00,0,Wunderground v.1.15,2013-04-18 06:44:00,
2013-04-17 23:50:00,57.8,30.3,30.14,NNW,348,0.0,3.0,35,0.00,,,0.00,0,Wunderground v.1.15,2013-04-18 06:50:00,
2013-04-17 23:56:00,57.6,30.1,30.15,NNE,16,1.0,3.0,35,0.00,,,0.00,0,Wunderground v.1.15,2013-04-18 06:56:00,